Other Surface Observations
Issued by NWS

Home | Current Version | Previous Version | Text Only | Print | Product List | Glossary On
Versions: 1 2 3 4 5 6 7 8 9 10 11 12 13 14 15 16 17 18 19 20 21 22 23 24 25 26 27 28 29 30 31 32 33 34 35 36 37 38 39 40 41 42 43 44 45 46 47 48 49 50
000
SXUS52 KTAE 301018
OSOTAE
OSOTAE
North Florida/South Alabama/Southwest Georgia Weather Roundup
National Weather Service Tallahassee Florida
600 AM EDT SAT AUG 30 2014

Note: "fair" indicates few or no clouds below 12,000 feet with no
significant weather and/or obstructions to visibility.

!FLZ017-115-028-034-025-301100
...North Florida...

CITY           SKY/WX    TMP DP  RH WIND       PRES   REMARKS
TALLAHASSEE    PTCLDY    75  72  90 CALM      30.10R FOG
APALACHICOLA   PTCLDY    80  77  90 SE5       30.07S
PERRY          PTCLDY    72  72 100 CALM      30.10S
CROSS CITY       N/A     73  70  90 CALM      30.10R
HOMERVILLE     FAIR      73  73 100 CALM      30.11R
JACKSONVILLE   PTCLDY    72  72 100 SW5       30.11R
$$

!FLZ112-006-005-002-011-301100
...Florida Panhandle...

CITY           SKY/WX    TMP DP  RH WIND       PRES   REMARKS
MARIANNA       FOG       75  75 100 E3        30.08R VSB 3/4
BONIFAY        LGT RAIN  73  73 100 CALM      30.09R VSB 1/4
PANAMA CITY NW FAIR      76  73  91 CALM      30.06R
TYNDALL AFB    CLEAR     77  75  95 E2        30.08R
TYND DRONE APT FAIR      78  77  96 E3        30.05S
DE FUNIAK SPR  FAIR      75  74  98 CALM      30.08R
EGLIN AFB      PTCLDY    79  75  89 NE3       30.06R
DESTIN         MOCLDY    84  75  74 S3        30.05R HX  92
HURLBURT       MOCLDY    82  71  70 CALM      30.04R
CRESTVIEW      PTCLDY    73  72  96 CALM      30.08R
PENSACOLA      MOCLDY    77  74  90 S3        30.04S
$$

!ALZ063-066-301100
...South Alabama...

CITY           SKY/WX    TMP DP  RH WIND       PRES   REMARKS
DOTHAN         FOG       74  73  97 CALM      30.13R VSB 1/4
OZARK CAIRNS   PTCLDY    73  72  97 NE3       30.09R
FT RUCKER HELI MOCLDY    74  72  93 CALM      30.08R
RUCKER HELI 3  MOCLDY    74  73  97 E2        30.11R
RUCKER HELI 2  MOCLDY    73  72  96 CALM      30.09R
FLORALA APT    PTCLDY    75  73  93 CALM      30.09R
ANDALUSIA      PTCLDY    77  73  88 CALM      30.07S
TROY           PTCLDY    73  72  96 CALM      30.09R
EUFALA         MOCLDY    73  72  94 CALM      30.09R
MOBILE         CLOUDY    76  76 100 SE6       30.05R
$$

!GAZ120>161-301100
...Southwest and South Central Georgia...

CITY           SKY/WX    TMP DP  RH WIND       PRES   REMARKS
THOMASVILLE    CLOUDY    75  75 100 CALM      30.11S
BAINBRIDGE     FOG       79  77  94 CALM      30.09S VSB 3/4
MOODY AFB      PTCLDY    73  71  93 S2        30.10S
VALDOSTA       CLEAR     72  70  93 CALM      30.10S
MOULTRIE       PTCLDY    75  73  94 CALM      30.11S
BLAKELY        FOG       77  75  94 CALM        N/A  VSB 1/4
ALBANY         MOCLDY    75  73  94 CALM      30.12S
TIFTON         FAIR      74  73  95 CALM      30.11R
FITZGERALD       N/A     75  73  91 CALM      30.13S FOG
CORDELE        FAIR      77  73  86 CALM      30.12R
AMERICUS       FAIR      73  73 100 CALM      30.13R
$$

!GMZ750-755-770-775-301100
...Coastal and Buoy Obs...

STATION/POSITION TIME  TEMP    WIND        PRES    VSBY  WAVE
                       AIR SEA DIR/SP/G                  HT/PER
                 (UTC) (F)     (DEG/KT/KT) (MB)    (MI)  (FT/S)
KEATON BEACH     1000   75      90/  3/  3 1019.3R
CEDAR KEY        1000   81     150/  5/  5 1019.6R
C TOWER          1000   83     140/  7/  8 1018.5R
APALACHICOLA BUO 1000   84 86  130/  6/  6 1018.4R         2/ 5
PANAMA CITY BUOY 0947   85 86  140/  8/ 10 1017.5R         2/ 5
MOBILE BUOY      1000   83 84  140/ 12/ 14 1016.7F
ORANGE BCH AL BU 1000   83 85  160/  8/ 10 1017.1R         2/ 5
$$



USA.gov is the U.S. government's official web portal to all federal, state and local government web resources and services.